Wind_Speed
23 23 23 22 22 20 20 19 20 22 20 19 18 18 18 16 15 15 15 13 15 12 11 12 12 11 9
22 23 22 20 23 22 22 18 21 22 19 20 19 17 15 15 16 16 17 17 17 15 13 14 14 11 10
20 20 19 19 19 22 21 22 21 23 20 21 20 16 14 17 17 17 18 18 19 17 15 14 14 12 11
18 18 18 19 20 20 22 24 25 24 22 23 20 16 16 17 18 17 16 15 17 16 15 14 14 13 12
17 17 19 20 20 21 23 23 25 25 25 23 18 14 17 17 17 16 15 16 17 16 16 16 14 14 13
14 16 17 18 20 21 24 27 27 25 23 22 18 18 16 17 18 17 17 17 18 18 18 18 16 14 15
13 14 15 16 16 19 21 22 24 22 18 22 18 18 18 19 19 18 18 18 17 17 18 18 17 16 16
13 13 14 13 15 15 15 17 19 20 18 16 16 18 18 20 21 20 19 17 16 16 17 17 17 17 16
13 13 13 14 14 14 13 14 16 17 18 18 17 18 18 20 19 19 19 17 15 16 16 16 17 17 16
13 12 12 12 12 13 14 15 16 16 17 18 18 15 14 20 21 20 19 16 16 17 17 17 17 18 16
11 11 10 10 10 10 11 12 13 15 12 11 15 16 19 14 11 20 20 17 17 17 18 17 17 16 16
8 9 11 11 11 11 11 12 14 15 16 17 17 15 15 18 15 14 20 19 19 18 18 17 17 16 16
9 10 11 12 13 13 13 13 14 15 16 17 18 17 16 16 16 14 16 20 20 19 19 18 17 17 17
10 12 12 12 12 11 10 11 12 12 12 13 15 16 17 16 16 15 14 12 15 18 18 18 18 19 18
12 13 12 12 11 11 10 10 11 10 11 12 13 15 16 17 17 16 17 18 18 16 16 17 17 17 17
13 13 13 12 12 12 11 10 10 10 11 11 12 13 16 15 16 18 20 20 19 20 19 18 15 16 15
15 15 14 14 13 12 12 11 11 12 11 11 12 13 13 13 12 13 17 17 18 18 16 16 12 13 13
Wind_Direction
271 271 268 268 272 268 273 262 268 271 260 254 263 266 264 263 253 251 262 253 238 238 250 254 264 260 266
274 273 273 262 268 261 264 265 262 259 258 256 260 264 257 251 250 246 252 253 253 252 253 258 255 253 261
281 277 273 275 273 263 255 264 255 252 255 257 256 261 251 250 252 249 251 249 250 251 247 244 248 252 250
283 279 274 269 265 264 255 262 255 247 247 254 256 257 257 253 254 252 248 242 243 240 241 246 247 245 243
305 281 274 274 274 269 266 260 255 249 249 245 249 263 262 253 248 241 241 239 238 243 247 248 243 243 237
307 292 281 272 266 262 264 256 246 248 254 247 251 265 258 250 245 243 243 245 247 246 245 244 239 232 219
301 298 290 281 272 265 258 256 253 249 250 240 251 259 255 245 244 248 249 251 246 241 241 236 228 217 206
293 291 286 287 281 276 266 254 249 246 243 249 262 260 251 246 247 251 252 250 245 234 232 226 215 208 210
291 291 287 281 278 280 268 254 243 245 249 254 261 251 246 248 247 248 249 250 240 223 221 210 208 214 218
290 292 290 285 277 268 256 252 250 252 255 250 249 244 249 251 248 244 242 239 225 215 214 212 216 223 227
285 284 284 283 281 273 260 253 249 244 248 243 248 247 242 254 256 238 235 227 218 215 219 221 225 227 230
281 279 277 276 275 270 263 257 254 252 250 249 250 251 251 249 248 248 229 220 217 218 227 228 231 234 234
279 285 285 283 278 272 266 261 257 254 251 249 247 246 246 245 243 243 223 221 223 228 232 234 234 240 248
282 283 284 282 277 272 268 263 259 255 251 246 245 243 241 241 237 230 231 215 228 230 233 237 243 250 250
281 282 282 283 279 272 266 263 261 256 253 248 246 244 243 241 237 232 232 235 239 239 238 241 245 249 252
275 279 281 281 280 275 271 267 262 258 257 254 251 253 252 248 245 240 241 242 242 243 244 246 245 249 252
271 275 274 274 277 275 271 270 266 262 257 260 257 251 247 247 244 241 240 239 239 242 243 245 243 245 250
Height
1545 1544 1543 1544 1544 1545 1543 1543 1545 1545 1546 1545 1546 1546 1545 1546 1546 1548 1548 1549 1549 1550 1549 1551 1551 1552 1553
1538 1538 1538 1538 1538 1538 1538 1538 1538 1538 1539 1540 1541 1541 1540 1542 1542 1544 1545 1544 1546 1546 1546 1548 1548 1549 1550
1531 1531 1531 1531 1531 1533 1531 1533 1533 1533 1533 1533 1535 1535 1536 1537 1538 1539 1540 1539 1542 1542 1543 1545 1545 1545 1547
1526 1526 1526 1526 1526 1525 1526 1527 1527 1527 1527 1528 1530 1530 1532 1533 1534 1536 1535 1535 1538 1538 1538 1541 1541 1542 1543
1519 1520 1521 1521 1520 1522 1521 1522 1521 1522 1522 1523 1524 1526 1526 1527 1530 1531 1531 1532 1533 1534 1535 1537 1537 1538 1540
1517 1515 1515 1514 1514 1514 1515 1515 1514 1516 1518 1518 1520 1521 1522 1523 1525 1526 1527 1528 1529 1529 1530 1532 1533 1534 1536
1511 1511 1510 1510 1509 1509 1510 1509 1510 1511 1512 1512 1515 1516 1517 1519 1520 1521 1522 1523 1525 1525 1526 1527 1529 1530 1533
1506 1506 1506 1506 1505 1505 1504 1504 1505 1506 1507 1509 1510 1511 1513 1514 1515 1516 1517 1518 1520 1521 1521 1523 1525 1528 1530
1503 1503 1503 1502 1501 1501 1500 1501 1501 1502 1503 1504 1506 1507 1508 1509 1510 1511 1513 1514 1515 1516 1518 1520 1522 1525 1527
1500 1499 1498 1498 1497 1497 1497 1498 1499 1499 1500 1501 1501 1503 1504 1504 1505 1506 1507 1509 1510 1513 1515 1517 1519 1522 1524
1496 1495 1495 1494 1494 1494 1494 1494 1495 1496 1497 1497 1498 1499 1500 1500 1500 1501 1504 1506 1507 1510 1512 1514 1516 1519 1520
1492 1492 1492 1491 1491 1491 1491 1491 1492 1493 1493 1494 1495 1496 1496 1497 1497 1498 1499 1502 1504 1507 1509 1510 1512 1515 1516
1489 1489 1489 1488 1488 1487 1487 1487 1487 1488 1489 1489 1490 1492 1492 1493 1494 1495 1496 1498 1500 1503 1505 1507 1508 1510 1511
1485 1485 1485 1484 1484 1484 1483 1483 1483 1484 1484 1485 1486 1487 1488 1489 1490 1492 1494 1495 1496 1499 1501 1502 1503 1505 1506
1482 1482 1482 1481 1480 1480 1479 1479 1479 1480 1481 1481 1482 1483 1484 1485 1486 1488 1490 1491 1493 1495 1496 1497 1498 1499 1500
1478 1479 1478 1478 1477 1476 1476 1475 1476 1477 1477 1478 1478 1479 1480 1481 1482 1483 1484 1486 1488 1489 1491 1491 1493 1494 1494
1474 1474 1474 1474 1473 1473 1473 1472 1472 1473 1473 1474 1475 1476 1476 1476 1477 1478 1479 1481 1483 1484 1485 1486 1488 1488 1489